When you browse on this site, cookies collect data to enhance your experience and personalize the content and advertising you see.
Visit our Privacy Policy to learn more. By continuing to use the site, you agree to this use of cookies and data.
  • en France
  • Liste des pays
  • À 7 jours
  • Température de l'eau
  • Carte météo
  • Widgets météo
  • user-avatar
    Se connecter

    Météo par heure à San Luis

    Ce jour, 19 Février, Mercredi

    Heure Température Précipitation Vent Pression Humidité
    00:00 +20°C° 0 mm 3 m/s 696 mmHg 32%
    01:00 +20°C° 0 mm 3 m/s 696 mmHg 35%
    02:00 +19°C° 0 mm 3 m/s 696 mmHg 38%
    03:00 +19°C° 0 mm 3 m/s 696 mmHg 40%
    04:00 +19°C° 0 mm 3 m/s 695 mmHg 42%
    05:00 +19°C° 0 mm 3 m/s 695 mmHg 44%
    06:00 +20°C° 0 mm 4 m/s 696 mmHg 41%
    07:00 +22°C° 0 mm 4 m/s 696 mmHg 39%
    08:00 +25°C° 0 mm 4 m/s 697 mmHg 36%
    09:00 +26°C° 0 mm 4 m/s 697 mmHg 34%
    10:00 +28°C° 0 mm 5 m/s 697 mmHg 32%
    11:00 +29°C° 0 mm 5 m/s 697 mmHg 31%
    12:00 +30°C° 0 mm 5 m/s 697 mmHg 30%
    13:00 +32°C° 0 mm 5 m/s 697 mmHg 29%
    14:00 +33°C° 0 mm 4 m/s 697 mmHg 28%
    15:00 +33°C° 0 mm 4 m/s 696 mmHg 29%
    16:00 +33°C° 0 mm 3 m/s 696 mmHg 29%
    17:00 +32°C° 0 mm 2 m/s 696 mmHg 29%
    18:00 +30°C° 0 mm 2 m/s 696 mmHg 34%
    19:00 +27°C° 0 mm 1 m/s 696 mmHg 39%
    20:00 +25°C° 0 mm 1 m/s 696 mmHg 45%
    21:00 +24°C° 0 mm 3 m/s 697 mmHg 41%
    22:00 +23°C° 0 mm 4 m/s 698 mmHg 37%
    23:00 +23°C° 0 mm 6 m/s 699 mmHg 34%

    Demain, 20 Février, Jeudi

    Heure Température Précipitation Vent Pression Humidité
    00:00 +22°C° 0 mm 7 m/s 699 mmHg 34%
    01:00 +21°C° 0 mm 7 m/s 700 mmHg 35%
    02:00 +20°C° 0 mm 8 m/s 700 mmHg 35%
    03:00 +20°C° 0 mm 8 m/s 700 mmHg 35%
    04:00 +20°C° 0 mm 7 m/s 700 mmHg 35%
    05:00 +18°C° 0 mm 7 m/s 701 mmHg 35%
    06:00 +20°C° 0 mm 7 m/s 701 mmHg 34%
    07:00 +21°C° 0 mm 8 m/s 702 mmHg 33%
    08:00 +21°C° 0 mm 8 m/s 702 mmHg 32%
    09:00 +22°C° 0 mm 8 m/s 703 mmHg 30%
    10:00 +24°C° 0 mm 8 m/s 703 mmHg 29%
    11:00 +26°C° 0 mm 8 m/s 703 mmHg 27%
    12:00 +27°C° 0 mm 9 m/s 703 mmHg 25%
    13:00 +28°C° 0 mm 9 m/s 703 mmHg 24%
    14:00 +29°C° 0 mm 9 m/s 703 mmHg 22%
    15:00 +28°C° 0 mm 9 m/s 702 mmHg 23%
    16:00 +28°C° 0 mm 10 m/s 701 mmHg 23%
    17:00 +27°C° 0 mm 10 m/s 701 mmHg 23%
    18:00 +26°C° 0 mm 10 m/s 701 mmHg 23%
    19:00 +23°C° 0 mm 9 m/s 701 mmHg 23%
    20:00 +22°C° 0 mm 9 m/s 702 mmHg 23%
    21:00 +21°C° 0 mm 9 m/s 702 mmHg 23%
    22:00 +21°C° 0 mm 9 m/s 703 mmHg 23%
    23:00 +20°C° 0 mm 8 m/s 703 mmHg 22%

    Après-demain, 21 Février, Vendredi

    Heure Température Précipitation Vent Pression Humidité
    00:00 +20°C° 0 mm 8 m/s 703 mmHg 22%
    01:00 +20°C° 0 mm 7 m/s 704 mmHg 22%
    02:00 +20°C° 0 mm 6 m/s 704 mmHg 22%
    09:00 +21°C° 0 mm 7 m/s 706 mmHg 26%
    10:00 +22°C° 0 mm 7 m/s 706 mmHg 26%
    11:00 +23°C° 0 mm 6 m/s 706 mmHg 26%
    12:00 +26°C° 0 mm 6 m/s 706 mmHg 25%
    13:00 +27°C° 0 mm 6 m/s 705 mmHg 24%
    14:00 +28°C° 0 mm 6 m/s 705 mmHg 23%
    15:00 +28°C° 0 mm 6 m/s 704 mmHg 24%
    16:00 +28°C° 0 mm 6 m/s 704 mmHg 24%
    17:00 +28°C° 0 mm 5 m/s 703 mmHg 24%
    18:00 +26°C° 0 mm 5 m/s 703 mmHg 25%
    19:00 +23°C° 0 mm 5 m/s 703 mmHg 26%
    20:00 +22°C° 0 mm 4 m/s 703 mmHg 27%
    21:00 +21°C° 0 mm 5 m/s 703 mmHg 27%
    22:00 +20°C° 0 mm 5 m/s 704 mmHg 27%
    23:00 +19°C° 0 mm 6 m/s 704 mmHg 27%

    22 Février, Samedi

    Heure Température Précipitation Vent Pression Humidité
    00:00 +20°C° 0 mm 6 m/s 704 mmHg 27%
    01:00 +20°C° 0 mm 5 m/s 703 mmHg 28%
    02:00 +20°C° 0 mm 5 m/s 703 mmHg 28%
    03:00 +20°C° 0 mm 5 m/s 703 mmHg 28%
    04:00 +20°C° 0 mm 5 m/s 703 mmHg 29%
    05:00 +20°C° 0 mm 5 m/s 703 mmHg 30%
    06:00 +20°C° 0 mm 4 m/s 703 mmHg 31%
    07:00 +21°C° 0 mm 4 m/s 703 mmHg 31%
    08:00 +21°C° 0 mm 4 m/s 704 mmHg 32%
    09:00 +22°C° 0 mm 5 m/s 704 mmHg 31%
    10:00 +23°C° 0 mm 5 m/s 704 mmHg 31%
    11:00 +24°C° 0 mm 6 m/s 704 mmHg 30%
    12:00 +24°C° 0 mm 6 m/s 703 mmHg 30%
    13:00 +24°C° 0 mm 6 m/s 703 mmHg 30%
    14:00 +26°C° 0 mm 6 m/s 702 mmHg 30%
    15:00 +26°C° 0 mm 6 m/s 701 mmHg 29%
    16:00 +27°C° 0 mm 5 m/s 701 mmHg 29%
    17:00 +27°C° 0 mm 5 m/s 700 mmHg 28%
    18:00 +25°C° 0 mm 5 m/s 700 mmHg 32%
    19:00 +22°C° 0 mm 5 m/s 700 mmHg 36%
    20:00 +20°C° 0 mm 4 m/s 699 mmHg 40%
    21:00 +20°C° 0 mm 4 m/s 700 mmHg 41%
    22:00 +19°C° 0 mm 4 m/s 700 mmHg 43%
    23:00 +19°C° 0 mm 4 m/s 700 mmHg 44%

    23 Février, Dimanche

    Heure Température Précipitation Vent Pression Humidité
    00:00 +19°C° 0 mm 4 m/s 699 mmHg 43%
    01:00 +19°C° 0 mm 5 m/s 699 mmHg 42%
    02:00 +17°C° 0 mm 5 m/s 699 mmHg 40%
    03:00 +17°C° 0 mm 5 m/s 698 mmHg 41%
    04:00 +17°C° 0 mm 5 m/s 698 mmHg 41%
    05:00 +17°C° 0 mm 5 m/s 698 mmHg 42%
    06:00 +20°C° 0 mm 6 m/s 698 mmHg 39%
    07:00 +21°C° 0 mm 6 m/s 698 mmHg 37%
    08:00 +23°C° 0 mm 6 m/s 699 mmHg 34%
    09:00 +24°C° 0 mm 6 m/s 698 mmHg 32%
    10:00 +27°C° 0 mm 5 m/s 698 mmHg 30%
    11:00 +29°C° 0 mm 5 m/s 698 mmHg 28%
    12:00 +29°C° 0 mm 5 m/s 698 mmHg 27%
    13:00 +30°C° 0 mm 5 m/s 697 mmHg 26%
    14:00 +32°C° 0 mm 5 m/s 697 mmHg 25%
    15:00 +32°C° 0 mm 5 m/s 696 mmHg 26%
    16:00 +32°C° 0 mm 5 m/s 695 mmHg 26%
    17:00 +32°C° 0 mm 5 m/s 694 mmHg 27%
    18:00 +29°C° 0 mm 5 m/s 694 mmHg 32%
    19:00 +26°C° 0 mm 5 m/s 694 mmHg 37%
    20:00 +23°C° 0 mm 4 m/s 694 mmHg 42%
    21:00 +22°C° 0 mm 4 m/s 694 mmHg 42%
    22:00 +22°C° 0 mm 5 m/s 694 mmHg 41%
    23:00 +21°C° 0 mm 5 m/s 694 mmHg 41%

    24 Février, Lundi

    Heure Température Précipitation Vent Pression Humidité
    00:00 +21°C° 0 mm 5 m/s 694 mmHg 41%
    01:00 +21°C° 0 mm 6 m/s 694 mmHg 41%
    02:00 +21°C° 0 mm 6 m/s 694 mmHg 41%
    03:00 +21°C° 0 mm 6 m/s 694 mmHg 41%
    04:00 +21°C° 0 mm 6 m/s 694 mmHg 41%
    05:00 +21°C° 0 mm 6 m/s 694 mmHg 41%
    06:00 +22°C° 0 mm 5 m/s 694 mmHg 39%
    07:00 +23°C° 0 mm 5 m/s 695 mmHg 36%
    08:00 +26°C° 0 mm 5 m/s 696 mmHg 34%
    09:00 +28°C° 0 mm 5 m/s 696 mmHg 31%
    10:00 +30°C° 0 mm 4 m/s 696 mmHg 28%
    11:00 +33°C° 0 mm 4 m/s 696 mmHg 25%
    12:00 +33°C° 0 mm 4 m/s 696 mmHg 23%
    13:00 +34°C° 0 mm 4 m/s 695 mmHg 22%
    14:00 +35°C° 0 mm 4 m/s 694 mmHg 20%
    15:00 +35°C° 0 mm 4 m/s 694 mmHg 20%
    16:00 +35°C° 0 mm 4 m/s 693 mmHg 20%
    17:00 +35°C° 0 mm 4 m/s 692 mmHg 20%
    18:00 +32°C° 0 mm 4 m/s 692 mmHg 24%
    19:00 +28°C° 0 mm 3 m/s 691 mmHg 29%
    20:00 +26°C° 0 mm 3 m/s 691 mmHg 34%
    21:00 +25°C° 0 mm 4 m/s 691 mmHg 33%
    22:00 +25°C° 0 mm 4 m/s 692 mmHg 33%
    23:00 +25°C° 0 mm 5 m/s 692 mmHg 32%
    Voir plus